| time (UTC) | temp F | wind direction | speed MPH | gust MPH | rain 1hr in | rain 24hr in | rain mn in | humidity % | barometer mb |
| 20260831103035 | 73 | 0 | 0.0 | 0.0 | 0.00 | 0.00 | 0.00 | 100 | 1019.6 |
| 20260831101535 | 73 | 0 | 0.0 | 0.0 | 0.00 | 0.00 | 0.00 | 100 | 1019.5 |
| 20260831100052 | 73 | 0 | 0.0 | 0.0 | 0.00 | 0.00 | 0.00 | 100 | 1019.2 |
| 20260831094536 | 73 | 0 | 0.0 | 0.0 | 0.00 | 0.00 | 0.00 | 100 | 1019.1 |
| 20260831093041 | 73 | 0 | 0.0 | 2.0 | 0.00 | 0.00 | 0.00 | 100 | 1019.0 |
| 20260831091546 | 73 | 312 | 0.0 | 1.0 | 0.00 | 0.00 | 0.00 | 100 | 1018.8 |
| 20260831090034 | 73 | 0 | 0.0 | 0.0 | 0.00 | 0.00 | 0.00 | 100 | 1019.1 |
| 20260831084542 | 73 | 0 | 0.0 | 0.0 | 0.00 | 0.00 | 0.00 | 100 | 1019.0 |
| 20260831083039 | 74 | 0 | 0.0 | 0.0 | 0.00 | 0.00 | 0.00 | 100 | 1018.9 |
| 20260831081537 | 74 | 0 | 0.0 | 0.0 | 0.00 | 0.00 | 0.00 | 100 | 1018.8 |
| 20260831080033 | 74 | 0 | 0.0 | 0.0 | 0.00 | 0.00 | 0.00 | 100 | 1018.8 |
| 20260831074549 | 74 | 0 | 0.0 | 0.0 | 0.00 | 0.00 | 0.00 | 100 | 1018.9 |
| 20260831073041 | 74 | 0 | 0.0 | 0.0 | 0.00 | 0.00 | 0.00 | 100 | 1018.9 |
| 20260831071536 | 74 | 0 | 0.0 | 0.0 | 0.00 | 0.00 | 0.00 | 100 | 1019.0 |
| 20260831070036 | 75 | 0 | 0.0 | 0.0 | 0.00 | 0.00 | 0.00 | 100 | 1019.1 |
| 20260831064534 | 75 | 0 | 0.0 | 0.0 | 0.00 | 0.00 | 0.00 | 100 | 1019.3 |
| 20260831063036 | 75 | 0 | 0.0 | 0.0 | 0.00 | 0.00 | 0.00 | 100 | 1019.3 |
| 20260831061534 | 75 | 0 | 0.0 | 0.0 | 0.00 | 0.00 | 0.00 | 100 | 1019.3 |
| 20260831060054 | 75 | 0 | 0.0 | 0.0 | 0.00 | 0.00 | 0.00 | 100 | 1019.3 |
| 20260831054537 | 76 | 0 | 0.0 | 0.0 | 0.00 | 0.00 | 0.00 | 100 | 1019.4 |
| 20260831053038 | 76 | 0 | 0.0 | 0.0 | 0.00 | 0.00 | 0.00 | 100 | 1019.4 |
| 20260831051538 | 76 | 0 | 0.0 | 0.0 | 0.00 | 0.00 | 0.00 | 100 | 1019.3 |
| 20260831050057 | 77 | 0 | 0.0 | 0.0 | 0.00 | 0.00 | 0.00 | 100 | 1019.3 |
| 20260831044535 | 77 | 0 | 0.0 | 0.0 | 0.00 | 0.00 | 0.00 | 100 | 1019.5 |
| 20260831043044 | 77 | 0 | 0.0 | 0.0 | 0.00 | 0.00 | 0.00 | 4 | 1019.2 |
| 20260831041543 | 77 | 0 | 0.0 | 0.0 | 0.00 | 0.00 | 0.00 | 10 | 1019.2 |
| 20260831040037 | 78 | 0 | 0.0 | 0.0 | 0.00 | 0.00 | 0.00 | 13 | 1019.3 |
| 20260831034540 | 78 | 0 | 0.0 | 0.0 | 0.00 | 0.00 | 0.00 | 16 | 1019.4 |
| 20260831033036 | 78 | 0 | 0.0 | 0.0 | 0.00 | 0.00 | 0.00 | 24 | 1019.3 |
| 20260831031543 | 79 | 0 | 0.0 | 0.0 | 0.00 | 0.00 | 0.00 | 32 | 1019.4 |
| 20260831030037 | 79 | 0 | 0.0 | 0.0 | 0.00 | 0.00 | 0.00 | 37 | 1019.4 |
| 20260831024535 | 80 | 0 | 0.0 | 0.0 | 0.00 | 0.00 | 0.00 | 41 | 1019.4 |
| 20260831023036 | 81 | 0 | 0.0 | 0.0 | 0.00 | 0.00 | 0.00 | 46 | 1019.3 |
| 20260831021535 | 82 | 0 | 0.0 | 0.0 | 0.00 | 0.00 | 0.00 | 49 | 1019.2 |
| 20260831020035 | 83 | 0 | 0.0 | 0.0 | 0.00 | 0.00 | 0.00 | 53 | 1019.2 |
| 20260831014539 | 84 | 0 | 0.0 | 0.0 | 0.00 | 0.00 | 0.00 | 55 | 1019.2 |
| 20260831013052 | 85 | 0 | 0.0 | 0.0 | 0.00 | 0.00 | 0.00 | 58 | 1018.9 |
| 20260831011537 | 86 | 0 | 0.0 | 0.0 | 0.00 | 0.00 | 0.00 | 62 | 1018.8 |
| 20260831010036 | 88 | 0 | 0.0 | 0.0 | 0.00 | 0.00 | 0.00 | 63 | 1018.7 |
| 20260831004539 | 89 | 0 | 0.0 | 0.0 | 0.00 | 0.00 | 0.00 | 63 | 1018.5 |
| 20260831003034 | 91 | 0 | 0.0 | 0.0 | 0.00 | 0.00 | 0.00 | 62 | 1018.5 |
| 20260831001538 | 93 | 0 | 0.0 | 0.0 | 0.00 | 0.00 | 0.00 | 62 | 1018.6 |
| 20260831000038 | 95 | 0 | 0.0 | 0.0 | 0.00 | 0.00 | 0.00 | 60 | 1018.5 |
| 20260830234540 | 96 | 0 | 0.0 | 0.0 | 0.00 | 0.00 | 0.00 | 60 | 1018.5 |
| 20260830233035 | 96 | 0 | 0.0 | 0.0 | 0.00 | 0.00 | 0.00 | 56 | 1018.4 |
| 20260830231535 | 96 | 0 | 0.0 | 0.0 | 0.00 | 0.00 | 0.00 | 57 | 1018.3 |
| 20260830230046 | 97 | 0 | 0.0 | 0.0 | 0.00 | 0.00 | 0.00 | 54 | 1018.3 |
| 20260830224538 | 97 | 0 | 0.0 | 1.0 | 0.00 | 0.00 | 0.00 | 52 | 1018.3 |
| 20260830223037 | 98 | 0 | 0.0 | 2.0 | 0.00 | 0.00 | 0.00 | 50 | 1018.4 |
| 20260830221538 | 98 | 270 | 0.0 | 3.0 | 0.00 | 0.00 | 0.00 | 48 | 1018.6 |
| 20260830220039 | 98 | 0 | 0.0 | 2.0 | 0.00 | 0.00 | 0.00 | 50 | 1018.7 |
| 20260830214538 | 98 | 0 | 0.0 | 4.0 | 0.00 | 0.00 | 0.00 | 53 | 1018.7 |
| 20260830213034 | 98 | 0 | 0.0 | 4.0 | 0.00 | 0.00 | 0.00 | 56 | 1018.8 |
| 20260830211533 | 97 | 0 | 0.0 | 3.0 | 0.00 | 0.00 | 0.00 | 54 | 1018.8 |
| 20260830210044 | 96 | 92 | 0.0 | 6.0 | 0.00 | 0.00 | 0.00 | 56 | 1019.0 |
| 20260830204539 | 95 | 284 | 2.0 | 6.0 | 0.00 | 0.00 | 0.00 | 55 | 1019.1 |
| 20260830203036 | 95 | 274 | 1.0 | 4.0 | 0.00 | 0.00 | 0.00 | 52 | 1019.3 |
| 20260830201535 | 95 | 281 | 1.0 | 4.0 | 0.00 | 0.00 | 0.00 | 52 | 1019.3 |
| 20260830200039 | 95 | 252 | 0.0 | 7.0 | 0.00 | 0.00 | 0.00 | 55 | 1019.4 |
| 20260830194545 | 94 | 279 | 0.0 | 4.0 | 0.00 | 0.00 | 0.00 | 55 | 1019.6 |
| 20260830193035 | 93 | 279 | 0.0 | 7.0 | 0.00 | 0.00 | 0.00 | 57 | 1020.0 |
| 20260830191537 | 92 | 270 | 1.0 | 7.0 | 0.00 | 0.00 | 0.00 | 59 | 1020.2 |
| 20260830190039 | 91 | 0 | 0.0 | 3.0 | 0.00 | 0.00 | 0.00 | 61 | 1020.3 |
| 20260830184539 | 90 | 92 | 0.0 | 3.0 | 0.00 | 0.00 | 0.00 | 62 | 1020.5 |
| 20260830183038 | 89 | 0 | 0.0 | 4.0 | 0.00 | 0.00 | 0.00 | 62 | 1020.6 |
| 20260830181534 | 89 | 0 | 1.0 | 6.0 | 0.00 | 0.00 | 0.00 | 61 | 1021.0 |
| 20260830180038 | 87 | 0 | 1.0 | 8.0 | 0.00 | 0.00 | 0.00 | 62 | 1020.9 |
| 20260830174541 | 86 | 76 | 1.0 | 7.0 | 0.00 | 0.00 | 0.00 | 64 | 1021.2 |
| 20260830173048 | 84 | 0 | 1.0 | 4.0 | 0.00 | 0.00 | 0.00 | 63 | 1021.2 |
| 20260830171535 | 82 | 5 | 1.0 | 8.0 | 0.00 | 0.00 | 0.00 | 54 | 1021.1 |
| 20260830170040 | 81 | 269 | 3.0 | 6.0 | 0.00 | 0.00 | 0.00 | 41 | 1021.4 |
| 20260830164544 | 81 | 271 | 2.0 | 11.0 | 0.00 | 0.00 | 0.00 | 7 | 1021.5 |
| 20260830163049 | 80 | 271 | 1.0 | 6.0 | 0.00 | 0.00 | 0.00 | 100 | 1021.7 |
| 20260830161543 | 79 | 101 | 1.0 | 4.0 | 0.00 | 0.00 | 0.00 | 100 | 1021.6 |
| 20260830160035 | 78 | 275 | 1.0 | 7.0 | 0.00 | 0.00 | 0.00 | 100 | 1021.7 |
| 20260830154536 | 76 | 266 | 1.0 | 4.0 | 0.00 | 0.00 | 0.00 | 100 | 1021.9 |
| 20260830153047 | 76 | 70 | 2.0 | 6.0 | 0.00 | 0.00 | 0.00 | 100 | 1021.8 |
| 20260830151541 | 75 | 155 | 0.0 | 5.0 | 0.00 | 0.00 | 0.00 | 100 | 1021.6 |
| 20260830150051 | 74 | 279 | 0.0 | 3.0 | 0.00 | 0.00 | 0.00 | 100 | 1021.5 |
| 20260830144542 | 73 | 265 | 0.0 | 4.0 | 0.00 | 0.00 | 0.00 | 100 | 1021.5 |
| 20260830143039 | 72 | 275 | 0.0 | 7.0 | 0.00 | 0.00 | 0.00 | 100 | 1021.1 |
| 20260830141537 | 72 | 274 | 1.0 | 7.0 | 0.00 | 0.00 | 0.00 | 100 | 1021.2 |
| 20260830140037 | 71 | 274 | 0.0 | 7.0 | 0.00 | 0.00 | 0.00 | 100 | 1021.2 |
| 20260830134541 | 71 | 283 | 1.0 | 6.0 | 0.00 | 0.00 | 0.00 | 100 | 1021.0 |
| 20260830133038 | 70 | 253 | 0.0 | 7.0 | 0.00 | 0.00 | 0.00 | 100 | 1020.8 |
| 20260830131544 | 70 | 275 | 1.0 | 4.0 | 0.00 | 0.00 | 0.00 | 100 | 1020.7 |
| 20260830130037 | 69 | 0 | 0.0 | 3.0 | 0.00 | 0.00 | 0.00 | 100 | 1020.6 |
| 20260830124537 | 68 | 271 | 0.0 | 3.0 | 0.00 | 0.00 | 0.00 | 100 | 1020.5 |
| 20260830123038 | 68 | 0 | 0.0 | 2.0 | 0.00 | 0.00 | 0.00 | 100 | 1020.4 |
| 20260830121539 | 68 | 0 | 0.0 | 0.0 | 0.00 | 0.00 | 0.00 | 100 | 1020.3 |
| 20260830120038 | 68 | 0 | 0.0 | 0.0 | 0.00 | 0.00 | 0.00 | 100 | 1020.1 |
| 20260830114542 | 68 | 0 | 0.0 | 0.0 | 0.00 | 0.00 | 0.00 | 100 | 1020.2 |
| 20260830113033 | 68 | 0 | 0.0 | 0.0 | 0.00 | 0.00 | 0.00 | 100 | 1020.1 |
| 20260830111535 | 68 | 0 | 0.0 | 0.0 | 0.00 | 0.00 | 0.00 | 100 | 1020.1 |
| 20260830110040 | 68 | 0 | 0.0 | 0.0 | 0.00 | 0.00 | 0.00 | 100 | 1019.7 |
| 20260830104538 | 68 | 0 | 0.0 | 0.0 | 0.00 | 0.00 | 0.00 | 100 | 1019.6 |